DW7731 Weather Reports


time (UTC)temp
C
wind
direction
speed
KPH
gust
KPH
rain 1hr
cm
rain 24hr
cm
rain mn
cm
humidity
%
barometer
mb
20260506162604 20 182 0.0 0.0 0.00 0.00 0.00 71 1011.2
20260506162104 20 182 0.0 0.0 0.00 0.00 0.00 69 1011.2
20260506161604 20 182 0.0 0.0 0.00 0.00 0.00 72 1011.2
20260506160604 20 182 0.0 0.0 0.00 0.00 0.00 70 1011.5
20260506160104 20 182 0.0 0.0 0.00 0.00 0.00 69 1011.2
20260506155604 20 182 0.0 0.0 0.00 0.00 0.00 68 1011.2
20260506154604 20 182 0.0 0.0 0.00 0.00 0.00 68 1011.5
20260506154104 20 182 0.0 0.0 0.00 0.00 0.00 69 1011.5
20260506153604 20 182 0.0 0.0 0.00 0.00 0.00 69 1011.5
20260506153104 20 182 0.0 0.0 0.00 0.00 0.00 69 1011.5
20260506152104 21 182 0.0 0.0 0.00 0.00 0.00 67 1011.9
20260506151604 20 182 0.0 0.0 0.00 0.00 0.00 69 1011.9
20260506151104 20 182 0.0 0.0 0.00 0.00 0.00 70 1011.9
20260506150604 20 182 0.0 0.0 0.00 0.00 0.00 71 1011.9
20260506150104 20 182 0.0 0.0 0.00 0.00 0.00 69 1011.9
20260506145604 20 182 0.0 0.0 0.00 0.00 0.00 69 1011.9
20260506145104 20 182 0.0 0.0 0.00 0.00 0.00 70 1012.2
20260506144604 20 182 0.0 0.0 0.00 0.00 0.00 69 1011.9
20260506143604 20 182 0.0 0.0 0.00 0.00 0.00 74 1012.2
20260506143104 19 182 0.0 0.0 0.00 0.00 0.00 72 1012.2
20260506142604 18 182 0.0 0.0 0.00 0.00 0.00 75 1012.2
20260506142105 18 182 0.0 0.0 0.00 0.00 0.00 75 1012.2
20260506141604 18 182 0.0 0.0 0.00 0.00 0.00 75 1012.2
20260506141105 18 182 0.0 0.0 0.00 0.00 0.00 75 1011.9
20260506140604 18 182 0.0 0.0 0.00 0.00 0.00 75 1012.2
20260506140103 19 182 0.0 0.0 0.00 0.00 0.00 74 1012.2
20260506135604 19 182 0.0 0.0 0.00 0.00 0.00 75 1011.9
20260506135104 19 182 0.0 0.0 0.00 0.00 0.00 75 1011.9
20260506134104 19 182 0.0 0.0 0.00 0.00 0.00 79 1011.9
20260506133604 19 182 0.0 0.0 0.00 0.00 0.00 77 1012.2
20260506133104 18 182 0.0 0.0 0.00 0.00 0.00 77 1011.9
20260506132604 18 182 0.0 0.0 0.00 0.00 0.00 77 1012.1
20260506132104 18 182 0.0 0.0 0.00 0.00 0.00 78 1012.2
20260506131604 18 182 0.0 0.0 0.00 0.00 0.00 79 1012.2
20260506131104 17 182 0.0 0.0 0.00 0.00 0.00 81 1012.2
20260506130604 17 182 0.0 0.0 0.00 0.00 0.00 81 1012.4
20260506130103 17 182 0.0 0.0 0.00 0.00 0.00 80 1012.5
20260506125604 17 182 0.0 0.0 0.00 0.00 0.00 80 1012.5
20260506124604 17 182 0.0 0.0 0.00 0.00 0.00 81 1012.5
20260506124103 17 182 0.0 0.0 0.00 0.00 0.00 82 1012.5
20260506123604 16 182 0.0 0.0 0.00 0.00 0.00 84 1012.5
20260506123104 16 182 0.0 0.0 0.00 0.00 0.00 83 1012.5
20260506122604 16 182 0.0 0.0 0.00 0.00 0.00 84 1012.5
20260506122104 16 182 0.0 0.0 0.00 0.00 0.00 84 1012.5
20260506121604 16 182 0.0 0.0 0.00 0.00 0.00 85 1012.5
20260506121104 16 182 0.0 0.0 0.00 0.00 0.00 87 1012.5
20260506120604 15 182 0.0 0.0 0.00 0.00 0.00 88 1012.5
20260506120104 15 182 0.0 0.0 0.00 0.00 0.00 89 1012.5
20260506115604 15 182 0.0 0.0 0.00 0.00 0.00 89 1012.5
20260506115103 15 182 0.0 0.0 0.00 0.00 0.00 89 1012.5
20260506114104 15 182 0.0 0.0 0.00 0.00 0.00 90 1012.2
20260506113604 14 182 0.0 0.0 0.00 0.00 0.00 91 1012.5
20260506113104 14 182 0.0 0.0 0.00 0.00 0.00 92 1012.5
20260506112604 13 182 0.0 0.0 0.00 0.00 0.00 94 1012.9
20260506112104 13 182 0.0 0.0 0.00 0.00 0.00 94 1012.9
20260506111604 13 182 0.0 0.0 0.00 0.00 0.00 94 1012.9
20260506111103 13 182 0.0 0.0 0.00 0.00 0.00 94 1013.2
20260506110604 13 182 0.0 0.0 0.00 0.00 0.00 94 1013.2
20260506105104 12 182 0.0 0.0 0.00 0.00 0.00 95 1012.9
20260506104603 12 182 0.0 0.0 0.00 0.00 0.00 95 1012.9
20260506104104 12 182 0.0 0.0 0.00 0.00 0.00 95 1012.9
20260506103604 12 182 0.0 0.0 0.00 0.00 0.00 95 1012.9
20260506102604 12 182 0.0 0.0 0.00 0.00 0.00 95 1012.5
20260506102103 12 182 0.0 0.0 0.00 0.00 0.00 95 1012.5
20260506101604 12 182 0.0 0.0 0.00 0.00 0.00 95 1012.9
20260506101104 12 182 0.0 0.0 0.00 0.00 0.00 94 1012.5
20260506100603 12 182 0.0 0.0 0.00 0.00 0.00 94 1012.9
20260506095604 12 182 0.0 0.0 0.00 0.00 0.00 94 1012.5
20260506095104 12 182 0.0 0.0 0.00 0.00 0.00 94 1012.5
20260506094604 12 182 0.0 0.0 0.00 0.00 0.00 94 1012.5
20260506094104 12 182 0.0 0.0 0.00 0.00 0.00 94 1012.9
20260506093604 12 182 0.0 0.0 0.00 0.00 0.00 94 1012.5
20260506093104 12 182 0.0 0.0 0.00 0.00 0.00 94 1012.9
20260506092603 12 182 0.0 0.0 0.00 0.00 0.00 94 1012.9
20260506091604 12 182 0.0 0.0 0.00 0.00 0.00 93 1012.5
20260506090604 12 182 0.0 0.0 0.00 0.00 0.00 93 1012.5
20260506090104 12 182 0.0 0.0 0.00 0.00 0.00 93 1012.9
20260506085604 12 182 0.0 0.0 0.00 0.00 0.00 93 1012.9
20260506084604 12 182 0.0 0.0 0.00 0.00 0.00 92 1012.9
20260506084103 12 182 0.0 0.0 0.00 0.00 0.00 92 1012.9
20260506083604 12 182 0.0 0.0 0.00 0.00 0.00 92 1012.9
20260506083103 12 182 0.0 0.0 0.00 0.00 0.00 92 1012.5
20260506082603 12 182 0.0 0.0 0.00 0.00 0.00 91 1012.9
20260506082103 13 182 0.0 0.0 0.00 0.00 0.00 91 1012.9
20260506081604 12 182 0.0 0.0 0.00 0.00 0.00 91 1012.9
20260506081104 12 182 0.0 0.0 0.00 0.00 0.00 91 1012.9
20260506080104 12 182 0.0 0.0 0.00 0.00 0.00 91 1012.9
20260506072604 12 182 0.0 0.0 0.00 0.00 0.00 91 1012.9
20260506072103 12 182 0.0 0.0 0.00 0.00 0.00 91 1012.9
20260506071104 12 182 0.0 0.0 0.00 0.00 0.00 90 1012.9
20260506070105 12 182 0.0 0.0 0.00 0.00 0.00 90 1012.9
20260506062105 13 182 0.0 0.0 0.00 0.00 0.00 88 1012.9
20260506061605 13 182 0.0 0.0 0.00 0.00 0.00 88 1012.9
20260506061105 13 182 0.0 0.0 0.00 0.00 0.00 88 1012.9
20260506060105 13 182 0.0 0.0 0.00 0.00 0.00 87 1012.9
20260506051105 15 182 0.0 0.0 0.00 0.00 0.00 83 1013.2
20260506050605 15 182 0.0 0.0 0.00 0.00 0.00 83 1013.2
20260506050105 15 182 0.0 0.0 0.00 0.00 0.00 83 1013.2
20260506045106 15 182 0.0 0.0 0.00 0.00 0.00 83 1013.2
20260506044605 14 182 0.0 0.0 0.00 0.00 0.00 83 1013.2
20260506044105 14 182 0.0 0.0 0.00 0.00 0.00 83 1013.2
20260506043605 14 182 0.0 0.0 0.00 0.00 0.00 82 1013.2
20260506043105 14 182 0.0 0.0 0.00 0.00 0.00 82 1013.2
20260506042605 14 182 0.0 0.0 0.00 0.00 0.00 82 1013.2
20260506042105 14 182 0.0 0.0 0.00 0.00 0.00 81 1013.2
20260506041605 14 182 0.0 0.0 0.00 0.00 0.00 81 1013.2
20260506041105 14 182 0.0 0.0 0.00 0.00 0.00 81 1013.2
20260506040605 14 182 0.0 0.0 0.00 0.00 0.00 81 1013.2
20260506040105 14 182 0.0 0.0 0.00 0.00 0.00 81 1013.2
20260506035605 14 182 0.0 0.0 0.00 0.00 0.00 80 1013.2
20260506035105 14 182 0.0 0.0 0.00 0.00 0.00 80 1013.2
20260506034606 14 182 0.0 0.0 0.00 0.00 0.00 80 1013.2
20260506034105 14 182 0.0 0.0 0.00 0.00 0.00 80 1013.2
20260506033605 14 182 0.0 0.0 0.00 0.00 0.00 79 1013.2
20260506033105 14 182 0.0 0.0 0.00 0.00 0.00 79 1013.2
20260506032605 14 182 0.0 0.0 0.00 0.00 0.00 80 1013.2
20260506032105 14 182 0.0 0.0 0.00 0.00 0.00 79 1013.2
20260506031605 14 182 0.0 0.0 0.00 0.00 0.00 80 1013.2
20260506031105 14 182 0.0 0.0 0.00 0.00 0.00 80 1013.2
20260506030605 14 182 0.0 0.0 0.00 0.00 0.00 80 1013.2
20260506030106 14 182 0.0 0.0 0.00 0.00 0.00 80 1013.2
20260506025605 14 182 0.0 0.0 0.00 0.00 0.00 80 1013.2
20260506025105 14 182 0.0 0.0 0.00 0.00 0.00 80 1013.2
20260506024605 14 182 0.0 0.0 0.00 0.00 0.00 80 1013.2
20260506024105 14 182 0.0 0.0 0.00 0.00 0.00 79 1013.2
20260506023605 14 182 0.0 0.0 0.00 0.00 0.00 79 1013.2
20260506023105 14 182 0.0 0.0 0.00 0.00 0.00 80 1013.2
20260506022105 14 182 0.0 0.0 0.00 0.00 0.00 79 1013.2
20260506020605 14 182 0.0 0.0 0.00 0.00 0.00 78 1013.2
20260506020105 14 182 0.0 0.0 0.00 0.00 0.00 77 1013.2
20260506015605 14 182 0.0 0.0 0.00 0.00 0.00 78 1013.2
20260506015105 14 182 0.0 0.0 0.00 0.00 0.00 77 1013.2
20260506014605 14 182 0.0 0.0 0.00 0.00 0.00 77 1013.2
20260506014105 14 182 0.0 0.0 0.00 0.00 0.00 77 1013.2
20260506013605 15 182 0.0 0.0 0.00 0.00 0.00 76 1013.2
20260506013105 15 182 0.0 0.0 0.00 0.00 0.00 75 1012.9
20260506012604 15 182 0.0 0.0 0.00 0.00 0.00 75 1012.9
20260506012105 15 182 0.0 0.0 0.00 0.00 0.00 75 1012.9
20260506011605 15 182 0.0 0.0 0.00 0.00 0.00 74 1012.9
20260506011105 15 182 0.0 0.0 0.00 0.00 0.00 73 1012.9
20260506010605 15 182 0.0 0.0 0.00 0.00 0.00 72 1012.9
20260506010105 16 182 0.0 0.0 0.00 0.00 0.00 72 1012.5
20260506005605 16 182 0.0 0.0 0.00 0.00 0.00 72 1012.5
20260506005105 16 182 0.0 0.0 0.00 0.00 0.00 72 1012.5
20260506004605 16 182 0.0 0.0 0.00 0.00 0.00 72 1012.5
20260506004105 16 182 0.0 0.0 0.00 0.00 0.00 72 1012.5
20260506003605 16 182 0.0 0.0 0.00 0.00 0.00 72 1012.2
20260506002105 16 182 0.0 0.0 0.00 0.00 0.00 71 1012.2
20260506001605 16 182 0.0 0.0 0.00 0.00 0.00 70 1012.2
20260506001105 16 182 0.0 0.0 0.00 0.00 0.00 70 1011.9
20260506000605 17 182 0.0 0.0 0.00 0.00 0.00 69 1011.9
20260506000105 17 182 0.0 0.0 0.00 0.00 0.00 68 1011.9
20260505235605 17 182 0.0 0.0 0.00 0.00 0.00 67 1011.9
20260505235105 17 182 0.0 0.0 0.00 0.00 0.00 67 1011.9
20260505234605 17 182 0.0 0.0 0.00 0.00 0.00 66 1011.6
20260505234105 17 182 0.0 0.0 0.00 0.00 0.00 66 1011.5
20260505233605 18 182 0.0 0.0 0.00 0.00 0.00 66 1011.5
20260505233105 18 182 0.0 0.0 0.00 0.00 0.00 65 1011.3
20260505232605 18 182 0.0 0.0 0.00 0.00 0.00 64 1011.2
20260505232104 18 182 0.0 0.0 0.00 0.00 0.00 64 1011.2
20260505231604 18 182 0.0 0.0 0.00 0.00 0.00 63 1011.2
20260505231105 18 182 0.0 0.0 0.00 0.00 0.00 62 1011.1
20260505230605 19 182 0.0 0.0 0.00 0.00 0.00 61 1010.8
20260505230105 19 182 0.0 0.0 0.00 0.00 0.00 62 1010.8
20260505225605 19 182 0.0 0.0 0.00 0.00 0.00 61 1010.8
20260505224605 20 182 0.0 0.0 0.00 0.00 0.00 59 1010.8
20260505224105 20 182 0.0 0.0 0.00 0.00 0.00 59 1010.5
20260505223604 20 182 0.0 0.0 0.00 0.00 0.00 58 1010.5
20260505223105 20 182 0.0 0.0 0.00 0.00 0.00 58 1010.5
20260505222605 20 182 0.0 0.0 0.00 0.00 0.00 58 1010.5
20260505222105 21 182 0.0 0.0 0.00 0.00 0.00 57 1010.2
20260505221605 21 182 0.0 0.0 0.00 0.00 0.00 56 1010.2
20260505221105 21 182 0.0 0.0 0.00 0.00 0.00 57 1010.2
20260505220605 21 182 0.0 0.0 0.00 0.00 0.00 56 1010.5
20260505220105 21 182 0.0 0.0 0.00 0.00 0.00 57 1010.5
20260505215605 21 182 0.0 0.0 0.00 0.00 0.00 55 1010.5
20260505215105 21 182 0.0 0.0 0.00 0.00 0.00 56 1010.5
20260505214605 21 182 0.0 0.0 0.00 0.00 0.00 56 1010.2
20260505214105 21 182 0.0 0.0 0.00 0.00 0.00 59 1010.2
20260505213605 22 182 0.0 0.0 0.00 0.00 0.00 55 1010.2
20260505213105 22 182 0.0 0.0 0.00 0.00 0.00 55 1010.2
20260505212605 22 182 0.0 0.0 0.00 0.00 0.00 59 1010.5
20260505212105 22 182 0.0 0.0 0.00 0.00 0.00 54 1010.5
20260505211605 23 182 0.0 0.0 0.00 0.00 0.00 50 1010.2
20260505211105 23 182 0.0 0.0 0.00 0.00 0.00 52 1010.2
20260505210605 23 182 0.0 0.0 0.00 0.00 0.00 53 1010.2
20260505210105 23 182 0.0 0.0 0.00 0.00 0.00 51 1010.2
20260505205605 23 182 0.0 0.0 0.00 0.00 0.00 52 1010.2
20260505205105 24 182 0.0 0.0 0.00 0.00 0.00 49 1010.2
20260505204605 24 182 0.0 0.0 0.00 0.00 0.00 49 1010.2
20260505204105 25 182 0.0 0.0 0.00 0.00 0.00 49 1010.2
20260505203605 25 182 0.0 0.0 0.00 0.00 0.00 47 1010.2
20260505203105 25 182 0.0 0.0 0.00 0.00 0.00 48 1010.2
20260505202605 25 182 0.0 0.0 0.00 0.00 0.00 49 1010.2
20260505201605 25 182 0.0 0.0 0.00 0.00 0.00 52 1010.2
20260505201105 25 182 0.0 0.0 0.00 0.00 0.00 48 1010.2
20260505200105 25 182 0.0 0.0 0.00 0.00 0.00 47 1010.2
20260505195605 26 182 0.0 0.0 0.00 0.00 0.00 47 1010.2
20260505195105 26 182 0.0 0.0 0.00 0.00 0.00 46 1010.2
20260505194605 26 182 0.0 0.0 0.00 0.00 0.00 44 1010.2
20260505194105 26 182 0.0 0.0 0.00 0.00 0.00 46 1010.2
20260505193605 27 182 0.0 0.0 0.00 0.00 0.00 44 1010.2
20260505193104 27 182 0.0 0.0 0.00 0.00 0.00 46 1010.2
20260505192605 26 182 0.0 0.0 0.00 0.00 0.00 42 1010.2
20260505192105 26 182 0.0 0.0 0.00 0.00 0.00 48 1010.2
20260505191605 27 182 0.0 0.0 0.00 0.00 0.00 48 1010.2
20260505191105 26 182 0.0 0.0 0.00 0.00 0.00 41 1010.2
20260505190605 26 182 0.0 0.0 0.00 0.00 0.00 41 1010.2
20260505190105 27 182 0.0 0.0 0.00 0.00 0.00 44 1010.5
20260505185605 27 182 0.0 0.0 0.00 0.00 0.00 46 1010.2
20260505185105 26 182 0.0 0.0 0.00 0.00 0.00 45 1010.5
20260505184605 27 182 0.0 0.0 0.00 0.00 0.00 45 1010.5
20260505183605 27 182 0.0 0.0 0.00 0.00 0.00 43 1010.2
20260505183105 27 182 0.0 0.0 0.00 0.00 0.00 45 1010.5
20260505182604 27 182 0.0 0.0 0.00 0.00 0.00 42 1010.5
20260505182105 27 182 0.0 0.0 0.00 0.00 0.00 46 1010.5
20260505181605 26 182 0.0 0.0 0.00 0.00 0.00 45 1010.5
20260505181105 27 182 0.0 0.0 0.00 0.00 0.00 41 1010.5
20260505180605 27 182 0.0 0.0 0.00 0.00 0.00 43 1010.5
20260505180104 26 182 0.0 0.0 0.00 0.00 0.00 47 1010.5
20260505175605 26 182 0.0 0.0 0.00 0.00 0.00 44 1010.5
20260505175104 27 182 0.0 0.0 0.00 0.00 0.00 42 1010.8
20260505174605 27 182 0.0 0.0 0.00 0.00 0.00 41 1010.8
20260505174105 27 182 0.0 0.0 0.00 0.00 0.00 43 1010.8
20260505173605 26 182 0.0 0.0 0.00 0.00 0.00 44 1011.2
20260505173105 26 182 0.0 0.0 0.00 0.00 0.00 44 1011.2
20260505172605 27 182 0.0 0.0 0.00 0.00 0.00 45 1011.2
20260505172105 27 182 0.0 0.0 0.00 0.00 0.00 42 1011.2
20260505171605 26 182 0.0 0.0 0.00 0.00 0.00 47 1011.2
20260505170605 26 182 0.0 0.0 0.00 0.00 0.00 45 1011.5
20260505170105 26 182 0.0 0.0 0.00 0.00 0.00 45 1011.5
20260505165604 26 182 0.0 0.0 0.00 0.00 0.00 49 1011.8
20260505165105 26 182 0.0 0.0 0.00 0.00 0.00 50 1011.9
20260505164604 25 182 0.0 0.0 0.00 0.00 0.00 49 1011.9
20260505164105 26 182 0.0 0.0 0.00 0.00 0.00 47 1011.9
20260505163604 26 182 0.0 0.0 0.00 0.00 0.00 49 1012.0
20260505163104 25 182 0.0 0.0 0.00 0.00 0.00 51 1012.0